Location: Winter Haven
(28.0220°N, 81.7330°W)
Time: 17:31:48
(UTC-04:00)

Amateur Radio Satellites - All Passes

Search period start: 24 May 2016 17:01
Search period end: 25 May 2016 17:01
Location: Winter Haven, 28.0220°N, 81.7330°W

Satellite Date Start Highest point End Downlink Frequencies (MHz)
Time Altitude Azimuth
RS-15 24 May 17:15:11 17:24:55 37° 105° (ESE) 17:35:04 29.354- 29.394
MOZHAYETS 4 24 May 17:16:44 17:21:22 80° 102° (ESE) 17:26:00
AO-85 24 May 17:25:29 17:29:55 75° 245° (WSW) 17:33:57 145.980
KKS-1 24 May 17:27:37 17:31:54 51° 285° (WNW) 17:36:11 437.445
NOAA 18 24 May 17:37:41 17:39:53 12° 65° (ENE) 17:42:05 137.9125
AO-7 24 May 17:39:43 17:46:44 31° 260° (W) 17:53:50 29.400- 29.500
HORYU 2 24 May 17:45:11 17:49:35 69° 258° (WSW) 17:54:00 437.375
Cosmos 2504 24 May 18:04:52 18:11:17 37° 89° (E) 18:17:52 435.465 / 435.565
Cubesat XI-IV 24 May 18:06:31 18:10:11 19° 69° (ENE) 18:13:51 437.490
NOAA 15 24 May 18:13:14 18:18:01 35° 72° (ENE) 18:22:48 137.62
BRITE-PL 24 May 18:13:17 18:17:49 27° 70° (ENE) 18:22:28 437.365/2234.400
STARS 24 May 18:13:26 18:17:13 30° 287° (WNW) 18:21:00 437.465
CUBESAT XI-V 24 May 18:32:28 18:37:04 53° 100° (E) 18:41:38 437.345
YUBILEINY 24 May 18:40:41 18:47:57 29° 283° (WNW) 18:55:16 435.215
Cosmos 2491 24 May 18:51:53 18:54:22 11° 280° (W) 18:56:50 435.465 / 435.565
CUTE-I 24 May 18:52:10 18:57:21 59° 75° (ENE) 19:02:34 437.470
GOMX 1 24 May 18:55:41 19:00:32 33° 73° (ENE) 19:05:24 467.674
LilacSat-2 24 May 19:07:48 19:11:38 86° 73° (ENE) 19:15:26 437.200
NOAA 18 24 May 19:14:32 19:19:56 63° 258° (WSW) 19:25:22 137.9125
RS-15 24 May 19:26:02 19:36:47 51° 303° (WNW) 19:48:13 29.354- 29.394
Cubesat XI-IV 24 May 19:45:00 19:49:55 38° 261° (W) 19:54:50 437.490
AUBIESAT-1 24 May 19:50:51 19:54:24 25° 70° (ENE) 19:57:46 437.475
BRITE-PL 24 May 19:51:15 19:56:01 31° 264° (W) 20:00:59 437.365/2234.400
M-CUBED/EXP-1 PRIME 24 May 19:53:55 19:57:56 35° 71° (ENE) 20:01:44 437.505
NOAA 15 24 May 19:53:56 19:57:46 20° 264° (W) 20:01:37 137.62
Cosmos 2504 24 May 19:58:42 20:04:35 27° 283° (WNW) 20:10:40 435.465 / 435.565
DOVE 4 24 May 20:01:34 20:06:52 77° 78° (ENE) 20:12:05 437.250
STRAND 1 24 May 20:04:33 20:09:14 35° 99° (E) 20:13:54 437.568
CUBESAT XI-V 24 May 20:12:37 20:13:54 11° 292° (WNW) 20:15:12 437.345
PCSat 24 May 20:12:52 20:17:23 26° 59° (ENE) 20:21:54 145.827
CANX-2 24 May 20:18:48 20:22:27 30° 74° (ENE) 20:26:07 2200.000
SEEDS 24 May 20:28:48 20:32:08 24° 73° (ENE) 20:35:28 437.485
GOMX 1 24 May 20:34:12 20:38:30 24° 264° (W) 20:42:50 467.674
CUTE-I 24 May 20:35:58 20:37:38 11° 266° (W) 20:39:19 437.470
CUBEBUG 2 24 May 20:36:39 20:38:38 13° 70° (ENE) 20:40:35 437.445
HO-68 24 May 20:43:11 20:50:16 71° 73° (ENE) 20:57:22 435.675
CUTE 1.7 + AOD 2 24 May 20:46:12 20:50:18 60° 77° (ENE) 20:54:27 437.475
O/OREOS (USA 219) 24 May 20:57:17 21:01:35 46° 70° (ENE) 21:05:52 437.305
CINEMA 3 24 May 20:57:42 21:02:37 88° 265° (W) 21:07:21 145.822/145.860
UWE-3 24 May 21:10:55 21:14:19 22° 73° (ENE) 21:17:40 435.000/436.395/437.385
AIST 1 24 May 21:14:45 21:16:31 12° 87° (E) 21:18:17
COMPASS 1 24 May 21:20:21 21:24:27 79° 79° (E) 21:28:36 437.405
FUNcube-1 24 May 21:25:01 21:28:04 19° 72° (ENE) 21:31:04 145.935
AUBIESAT-1 24 May 21:25:34 21:28:44 20° 258° (WSW) 21:31:48 437.475
AAUSAT CUBESAT 2 24 May 21:26:18 21:30:22 73° 77° (ENE) 21:34:29 437.432
M-CUBED/EXP-1 PRIME 24 May 21:29:57 21:32:25 15° 259° (W) 21:34:49 437.505
ISS 24 May 21:36:35 21:39:03 20° 127° (SE) 21:41:31 145.825
PRISM 24 May 21:41:54 21:46:04 74° 102° (ESE) 21:50:12 437.425
STRAND 1 24 May 21:44:26 21:48:06 20° 291° (WNW) 21:51:46 437.568
RS-15 24 May 21:49:25 21:53:00 12° 330° (NNW) 21:56:40 29.354- 29.394
PHONESAT 2.4 24 May 21:50:13 21:51:28 12° 139° (SE) 21:52:43 2401.200-2431.200
CANX-2 24 May 21:55:57 21:58:17 15° 265° (W) 22:00:37 2200.000
PCSat 24 May 21:56:01 22:00:40 30° 253° (WSW) 22:05:18 145.827
SEEDS 24 May 22:04:50 22:07:43 18° 264° (W) 22:10:37 437.485
BEESAT 2 24 May 22:06:59 22:09:38 17° 56° (ENE) 22:12:15 435.950
CUBEBUG 2 24 May 22:10:39 22:14:53 40° 261° (W) 22:19:01 437.445
Oscar 11 24 May 22:12:06 22:16:23 82° 257° (WSW) 22:20:41 145.826/435.025
ZACube-1 24 May 22:19:46 22:24:05 75° 258° (WSW) 22:28:19 437.345
DELFI C3 24 May 22:24:12 22:28:04 58° 76° (ENE) 22:31:58 145.870
GONETS M04 24 May 22:32:06 22:40:35 54° 91° (E) 22:49:02
HO-68 24 May 22:34:36 22:38:20 15° 265° (W) 22:42:07 435.675
CUSAT 1 24 May 22:39:40 22:42:59 13° 66° (ENE) 22:46:06 437.405
BEESAT 3 24 May 22:47:15 22:51:10 76° 245° (WSW) 22:55:05 437.485
UWE-3 24 May 22:47:15 22:50:38 21° 263° (W) 22:53:57 435.000/436.395/437.385
Cosmos 2499 24 May 22:49:26 22:55:40 34° 88° (E) 23:02:11 435.465 / 435.565
AIST 1 24 May 22:49:39 22:53:40 35° 279° (W) 22:57:44
HUMSAT D 24 May 22:57:02 23:01:04 62° 77° (ENE) 23:05:06 437.325/437.525
FUNcube-1 24 May 23:00:38 23:04:06 24° 262° (W) 23:07:32 145.935
ISS 24 May 23:12:46 23:15:22 22° 319° (NW) 23:17:58 145.825
UNISAT 6 24 May 23:17:19 23:21:17 36° 99° (E) 23:25:19 437.425
ESTCUBE 1 24 May 23:21:29 23:24:39 19° 70° (ENE) 23:27:49 437.505/2401.250
PHONESAT 2.4 24 May 23:24:49 23:27:55 64° 329° (NNW) 23:31:02 2401.200-2431.200
TIGRISAT 24 May 23:25:54 23:30:00 44° 100° (E) 23:34:09 435.000
DANDE 24 May 23:42:37 23:49:26 27° 73° (ENE) 23:55:41 436.750
BEESAT 2 24 May 23:44:05 23:47:25 26° 249° (WSW) 23:50:46 435.950
QB50P1 24 May 23:45:48 23:46:09 10° 94° (E) 23:46:30 145.935-145.965
QB50P2 24 May 23:45:57 23:47:18 11° 95° (E) 23:48:38 145.880/145.840
POLYITAN 1 24 May 23:48:15 23:49:44 12° 95° (E) 23:51:12 437.675
AIST 2 24 May 23:49:42 23:51:51 14° 55° (NE) 23:53:59 435.215
50 SAT 24 May 23:52:42 23:55:51 29° 74° (ENE) 23:59:01 437.505
VELOX 1 24 May 23:56:28 00:00:26 33° 73° (ENE) 00:04:26 145.980
CUBEBUG 1 24 May 23:58:08 00:02:08 35° 74° (ENE) 00:06:10 437.445
ANTELSAT 24 May 23:58:24 00:02:40 64° 284° (WNW) 00:06:59 437.575/2403.000
DX 1 25 May 00:02:26 00:06:19 32° 73° (ENE) 00:10:13 434.975-435.025
NANOSAT C BR1 25 May 00:03:45 00:06:37 18° 96° (E) 00:09:28 145.865
CUSAT 1 25 May 00:18:31 00:26:12 84° 264° (W) 00:32:25 437.405
SO-50 25 May 00:27:57 00:31:10 18° 108° (ESE) 00:34:23 436.795
GONETS M04 25 May 00:30:46 00:37:36 25° 285° (WNW) 00:44:29
AISAT 25 May 00:31:33 00:36:01 83° 255° (WSW) 00:40:31 437.250
SPROUT 25 May 00:39:57 00:43:56 38° 74° (ENE) 00:47:55 437.525
Cosmos 2499 25 May 00:42:35 00:48:38 30° 283° (WNW) 00:55:00 435.465 / 435.565
DUCHIFAT 1 25 May 00:42:50 00:46:56 56° 101° (E) 00:51:01 145.980
JAS-2 25 May 00:53:14 00:56:42 14° 90° (E) 01:00:00 435.910
UNISAT 6 25 May 00:55:37 00:57:39 13° 290° (WNW) 00:59:42 437.425
UKube-1 25 May 00:57:18 01:01:34 62° 259° (W) 01:05:52 .
ESTCUBE 1 25 May 00:57:23 01:01:12 27° 262° (W) 01:05:03 437.505/2401.250
PHONESAT 2.4 25 May 01:03:22 01:05:04 14° 344° (NNW) 01:06:47 2401.200-2431.200
TIGRISAT 25 May 01:05:08 01:06:16 11° 291° (WNW) 01:07:25 435.000
BUGSAT 1 25 May 01:14:33 01:18:32 60° 101° (E) 01:22:28 437.445
TISAT 1 25 May 01:16:30 01:20:01 26° 73° (ENE) 01:23:31 437.305
POPSAT HIP 1 25 May 01:17:20 01:21:18 43° 285° (WNW) 01:25:16 437.405
QB50P1 25 May 01:18:05 01:22:02 41° 285° (WNW) 01:25:58 145.935-145.965
QB50P2 25 May 01:19:17 01:23:10 38° 286° (WNW) 01:27:03 145.880/145.840
POLYITAN 1 25 May 01:21:44 01:25:35 37° 286° (WNW) 01:29:27 437.675
DANDE 25 May 01:24:30 01:32:34 53° 269° (W) 01:39:42 436.750
AIST 2 25 May 01:26:36 01:30:26 37° 248° (WSW) 01:34:15 435.215
50 SAT 25 May 01:28:58 01:29:35 10° 265° (W) 01:30:13 437.505
VELOX 1 25 May 01:34:16 01:36:54 15° 264° (W) 01:39:33 145.980
CUBEBUG 1 25 May 01:36:04 01:38:27 14° 265° (W) 01:40:49 437.445
NANOSAT C BR1 25 May 01:38:51 01:42:14 24° 288° (WNW) 01:45:37 145.865
DX 1 25 May 01:39:58 01:42:30 15° 264° (W) 01:45:03 434.975-435.025
SWISSCUBE 25 May 02:04:31 02:07:42 18° 70° (ENE) 02:10:54 437.505
SO-50 25 May 02:06:46 02:11:18 38° 301° (WNW) 02:15:53 436.795
ITUPSAT 1 25 May 02:08:59 02:12:07 18° 69° (ENE) 02:15:17 437.325
Oscar 19 25 May 02:09:59 02:14:28 30° 98° (E) 02:18:54 437.125/150
SPROUT 25 May 02:18:17 02:19:57 12° 265° (W) 02:21:37 437.525
RS-15 25 May 02:24:50 02:34:24 25° 46° (NE) 02:43:51 29.354- 29.394
BEESAT 25 May 02:33:22 02:37:39 35° 73° (ENE) 02:41:57 436.000
JAS-2 25 May 02:35:02 02:42:24 73° 286° (WNW) 02:48:55 435.910
TISAT 1 25 May 02:52:42 02:55:35 18° 264° (W) 02:58:26 437.305
YUBILEINY 25 May 03:04:22 03:08:44 14° 71° (ENE) 03:13:04 435.215
SWISSCUBE 25 May 03:40:58 03:45:12 32° 261° (W) 03:49:27 437.505
ITUPSAT 1 25 May 03:45:23 03:49:39 33° 261° (W) 03:53:56 437.325
Gurwin Techsat 1B 25 May 03:46:32 03:51:48 67° 285° (WNW) 03:57:04 435.225
Cosmos 2491 25 May 03:48:48 03:54:48 21° 83° (E) 04:00:46 435.465 / 435.565
Oscar 19 25 May 03:49:35 03:53:33 23° 290° (WNW) 03:57:31 437.125/150
AO-7 25 May 03:56:46 04:02:55 22° 98° (E) 04:09:02 29.400- 29.500
MOZHAYETS 4 25 May 04:11:59 04:16:00 32° 73° (ENE) 04:20:02
BEESAT 25 May 04:12:29 04:15:26 16° 264° (W) 04:18:25 436.000
KKS-1 25 May 04:18:20 04:22:44 58° 76° (ENE) 04:27:08 437.445
PHONESAT 2.4 25 May 04:18:27 04:20:25 15° 18° (NNE) 04:22:23 2401.200-2431.200
ITAMSAT 1 25 May 04:23:18 04:28:32 78° 284° (WNW) 04:33:44 435.822/435.867
RS-15 25 May 04:35:54 04:48:19 85° 246° (WSW) 05:00:28 29.354- 29.394
YUBILEINY 25 May 04:57:33 05:06:20 84° 265° (W) 05:15:07 435.215
STARS 25 May 05:02:17 05:06:42 85° 256° (WSW) 05:11:08 437.465
JUGNU 25 May 05:24:57 05:26:25 11° 159° (SSE) 05:27:52 437.505
CUBESAT XI-V 25 May 05:29:27 05:33:07 23° 72° (ENE) 05:36:47 437.345
Cosmos 2491 25 May 05:42:05 05:50:47 63° 277° (W) 05:59:33 435.465 / 435.565
HORYU 2 25 May 05:43:07 05:47:15 38° 100° (E) 05:51:22 437.375
ISS 25 May 05:46:16 05:47:56 13° 38° (NE) 05:49:35 145.825
AO-7 25 May 05:47:44 05:55:55 61° 290° (WNW) 06:04:06 29.400- 29.500
MOZHAYETS 4 25 May 05:50:20 05:53:09 16° 265° (W) 05:55:59
AO-85 25 May 05:53:20 05:56:42 17° 107° (ESE) 06:00:03 145.980
PHONESAT 2.4 25 May 05:54:21 05:57:28 86° 32° (NNE) 06:00:35 2401.200-2431.200
Cosmos 2504 25 May 05:56:15 06:04:44 68° 83° (E) 06:13:33 435.465 / 435.565
BRITE-PL 25 May 06:27:34 06:29:36 12° 91° (E) 06:31:35 437.365/2234.400
Cubesat XI-IV 25 May 06:31:25 06:33:54 13° 95° (E) 06:36:22 437.490
NOAA 15 25 May 06:35:49 06:40:02 24° 97° (E) 06:44:13 137.62
LilacSat-2 25 May 06:49:17 06:51:33 15° 96° (E) 06:53:48 437.200
RS-15 25 May 06:52:56 06:59:02 15° 261° (W) 07:05:08 29.354- 29.394
YUBILEINY 25 May 07:00:26 07:01:45 10° 280° (W) 07:03:04 435.215
CUBESAT XI-V 25 May 07:06:36 07:10:19 24° 263° (W) 07:14:05 437.345
GOMX 1 25 May 07:06:52 07:09:08 14° 93° (E) 07:11:20 467.674
JUGNU 25 May 07:10:11 07:14:57 24° 166° (SSE) 07:19:42 437.505
STRAND 1 25 May 07:14:07 07:18:11 25° 70° (ENE) 07:22:16 437.568
CUTE-I 25 May 07:16:21 07:21:26 43° 100° (E) 07:26:30 437.470
HORYU 2 25 May 07:21:15 07:23:25 14° 291° (WNW) 07:25:35 437.375
ISS 25 May 07:21:25 07:24:29 39° 231° (SW) 07:27:32 145.825
AO-85 25 May 07:31:31 07:36:47 50° 299° (WNW) 07:42:03 145.980
NOAA 18 25 May 07:43:34 07:49:03 81° 286° (WNW) 07:54:33 137.9125
Cosmos 2504 25 May 07:51:45 07:57:20 19° 276° (W) 08:03:04 435.465 / 435.565
BRITE-PL 25 May 08:03:32 08:08:21 46° 286° (WNW) 08:12:48 437.365/2234.400
DOVE 4 25 May 08:08:43 08:12:36 32° 98° (E) 08:16:20 437.250
Cubesat XI-IV 25 May 08:08:56 08:14:08 53° 286° (WNW) 08:19:21 437.490
NOAA 15 25 May 08:15:09 08:19:42 30° 289° (WNW) 08:24:13 137.62
HO-68 25 May 08:20:14 08:25:06 19° 96° (E) 08:29:57 435.675
LilacSat-2 25 May 08:22:47 08:25:45 22° 287° (WNW) 08:28:44 437.200
PRISM 25 May 08:25:20 08:28:22 20° 71° (ENE) 08:31:26 437.425
CUTE 1.7 + AOD 2 25 May 08:38:57 08:41:53 18° 96° (E) 08:44:49 437.475
GOMX 1 25 May 08:43:10 08:47:22 35° 287° (WNW) 08:51:20 467.674
STRAND 1 25 May 08:52:55 08:57:11 27° 262° (W) 09:01:28 437.568
GONETS M04 25 May 08:53:08 08:58:33 18° 72° (ENE) 09:03:56
CUTE-I 25 May 08:57:38 09:01:04 18° 292° (WNW) 09:04:32 437.470
JUGNU 25 May 08:58:07 09:03:34 37° 175° (S) 09:09:01 437.505
SRMSAT 25 May 08:58:28 09:02:51 21° 164° (SSE) 09:07:12 437.500
CINEMA 3 25 May 08:59:59 09:03:46 34° 98° (E) 09:07:32 145.822/145.860
AIST 1 25 May 09:04:00 09:07:41 27° 80° (E) 09:11:20
AUBIESAT-1 25 May 09:10:09 09:13:21 48° 105° (ESE) 09:16:35 437.475
COMPASS 1 25 May 09:10:47 09:14:01 21° 97° (E) 09:17:15 437.405
M-CUBED/EXP-1 PRIME 25 May 09:14:16 09:17:31 78° 106° (ESE) 09:20:47 437.505
AAUSAT CUBESAT 2 25 May 09:16:19 09:19:21 19° 96° (E) 09:22:23 437.432
O/OREOS (USA 219) 25 May 09:25:42 09:27:47 13° 99° (E) 09:29:53 437.305
CANX-2 25 May 09:45:46 09:49:54 49° 284° (WNW) 09:54:02 2200.000
DOVE 4 25 May 09:47:43 09:49:56 14° 291° (WNW) 09:52:08 437.250
SEEDS 25 May 09:54:04 09:58:16 66° 284° (WNW) 10:02:29 437.485
PRISM 25 May 10:00:20 10:03:30 21° 263° (W) 10:06:42 437.425
HO-68 25 May 10:06:01 10:13:02 58° 288° (WNW) 10:20:01 435.675
Oscar 11 25 May 10:06:30 10:10:20 30° 98° (E) 10:14:10 145.826/435.025
CUBEBUG 2 25 May 10:07:59 10:12:08 70° 100° (E) 10:16:22 437.445
DELFI C3 25 May 10:10:25 10:12:20 13° 95° (E) 10:14:16 145.870
UNISAT 6 25 May 10:10:56 10:13:22 15° 70° (ENE) 10:15:45 437.425
CUTE 1.7 + AOD 2 25 May 10:14:05 10:17:38 26° 287° (WNW) 10:21:10 437.475
ZACube-1 25 May 10:15:04 10:18:53 33° 99° (E) 10:22:45 437.345
TIGRISAT 25 May 10:18:58 10:21:50 17° 71° (ENE) 10:24:41 435.000
CINEMA 3 25 May 10:38:51 10:40:33 12° 290° (WNW) 10:42:17 145.822/145.860
Cosmos 2499 25 May 10:39:10 10:47:46 63° 83° (E) 10:56:31 435.465 / 435.565
AIST 1 25 May 10:42:22 10:44:58 16° 272° (W) 10:47:34
UWE-3 25 May 10:42:30 10:46:37 62° 283° (WNW) 10:50:49 435.000/436.395/437.385
SO-50 25 May 10:45:08 10:49:11 29° 58° (ENE) 10:53:06 436.795
COMPASS 1 25 May 10:46:14 10:49:24 21° 288° (WNW) 10:52:35 437.405
SRMSAT 25 May 10:46:15 10:51:35 34° 173° (S) 10:56:54 437.500
PCSat 25 May 10:46:34 10:51:58 84° 292° (WNW) 10:57:25 145.827
JUGNU 25 May 10:46:50 10:52:16 36° 185° (S) 10:57:39 437.505
GONETS M04 25 May 10:47:19 10:55:57 71° 268° (W) 11:04:34
HUMSAT D 25 May 10:48:15 10:51:00 17° 96° (E) 10:53:46 437.325/437.525
ANTELSAT 25 May 10:50:15 10:54:29 45° 75° (ENE) 10:58:38 437.575/2403.000
AAUSAT CUBESAT 2 25 May 10:51:24 10:54:42 23° 287° (WNW) 10:58:00 437.432
FUNcube-1 25 May 10:54:22 10:58:33 76° 282° (WNW) 11:02:49 145.935
O/OREOS (USA 219) 25 May 11:02:30 11:06:46 39° 291° (WNW) 11:11:02 437.305
DUCHIFAT 1 25 May 11:29:03 11:31:47 17° 71° (ENE) 11:34:32 145.980
CUSAT 1 25 May 11:32:58 11:36:04 15° 81° (E) 11:39:30 437.405
Oscar 11 25 May 11:43:32 11:46:10 16° 290° (WNW) 11:48:49 145.826/435.025
DELFI C3 25 May 11:43:38 11:47:12 30° 286° (WNW) 11:50:44 145.870
UNISAT 6 25 May 11:45:43 11:49:45 34° 261° (W) 11:53:44 437.425
ZACube-1 25 May 11:52:46 11:54:51 14° 290° (WNW) 11:56:57 437.345
BEESAT 2 25 May 11:52:56 11:55:15 15° 109° (ESE) 11:57:35 435.950
TIGRISAT 25 May 11:54:25 11:58:16 29° 262° (W) 12:02:03 435.000
CUBEBUG 1 25 May 11:56:04 11:57:16 11° 94° (E) 11:58:27 437.445
VELOX 1 25 May 11:56:07 11:57:03 11° 94° (E) 11:58:00 145.980
BUGSAT 1 25 May 11:58:27 12:01:13 17° 71° (ENE) 12:03:59 437.445
POPSAT HIP 1 25 May 12:02:30 12:06:37 51° 76° (ENE) 12:10:44 437.405
QB50P1 25 May 12:03:08 12:07:17 54° 76° (ENE) 12:11:26 145.935-145.965
QB50P2 25 May 12:04:26 12:08:37 60° 76° (ENE) 12:12:48 145.880/145.840
POLYITAN 1 25 May 12:06:52 12:11:03 62° 77° (ENE) 12:15:15 437.675
NANOSAT C BR1 25 May 12:23:01 12:27:16 86° 258° (WSW) 12:31:31 145.865
HUMSAT D 25 May 12:23:06 12:26:32 25° 287° (WNW) 12:30:00 437.325/437.525
SO-50 25 May 12:26:07 12:29:23 20° 251° (WSW) 12:32:35 436.795
AISAT 25 May 12:29:05 12:33:01 31° 98° (E) 12:36:55 437.250
ANTELSAT 25 May 12:30:31 12:31:17 10° 266° (W) 12:32:03 437.575/2403.000
BEESAT 3 25 May 12:31:10 12:35:04 79° 296° (WNW) 12:39:01 437.485
Cosmos 2499 25 May 12:34:01 12:40:09 22° 276° (W) 12:46:23 435.465 / 435.565
SRMSAT 25 May 12:34:59 12:40:25 37° 183° (S) 12:45:50 437.500
SPROUT 25 May 12:35:07 12:36:25 11° 94° (E) 12:37:42 437.525
JUGNU 25 May 12:36:14 12:40:52 23° 195° (SSW) 12:45:29 437.505
JAS-2 25 May 12:38:48 12:44:31 27° 66° (ENE) 12:50:37 435.910
DANDE 25 May 12:43:24 12:47:16 26° 85° (E) 12:52:07 436.750
UKube-1 25 May 12:51:28 12:55:28 36° 99° (E) 12:59:25 .
ESTCUBE 1 25 May 12:55:58 13:00:30 76° 284° (WNW) 13:05:02 437.505/2401.250
50 SAT 25 May 13:01:45 13:05:28 75° 283° (WNW) 13:09:10 437.505
DUCHIFAT 1 25 May 13:03:39 13:07:13 27° 262° (W) 13:10:49 145.980
CUSAT 1 25 May 13:11:40 13:17:02 59° 281° (W) 13:23:56 437.405
Oscar 19 25 May 13:20:29 13:24:26 22° 70° (ENE) 13:28:22 437.125/150
BEESAT 2 25 May 13:29:23 13:32:49 28° 301° (WNW) 13:36:16 435.950
VELOX 1 25 May 13:29:26 13:33:39 45° 285° (WNW) 13:37:49 145.980
CUBEBUG 1 25 May 13:29:32 13:33:39 42° 286° (WNW) 13:37:44 437.445
BUGSAT 1 25 May 13:32:46 13:36:20 27° 262° (W) 13:39:55 437.445
DX 1 25 May 13:33:05 13:37:17 48° 285° (WNW) 13:41:27 434.975-435.025
AIST 2 25 May 13:41:00 13:43:05 14° 108° (ESE) 13:45:11 435.215
AISAT 25 May 14:06:31 14:09:11 16° 290° (WNW) 14:11:50 437.250
SPROUT 25 May 14:08:29 14:12:26 39° 285° (WNW) 14:16:23 437.525
JAS-2 25 May 14:22:23 14:28:59 48° 262° (W) 14:36:17 435.910
SRMSAT 25 May 14:24:20 14:29:11 27° 193° (SSW) 14:34:03 437.500
DANDE 25 May 14:26:07 14:29:59 24° 290° (WNW) 14:34:48 436.750
UKube-1 25 May 14:29:02 14:31:08 13° 291° (WNW) 14:33:12 .
BEESAT 25 May 14:41:27 14:44:22 16° 96° (E) 14:47:17 436.000
TISAT 1 25 May 14:41:59 14:46:07 65° 284° (WNW) 14:50:13 437.305
AO-7 25 May 14:50:03 14:54:56 17° 59° (ENE) 14:59:47 29.400- 29.500
Oscar 19 25 May 14:58:54 15:03:29 32° 262° (W) 15:08:05 437.125/150
Gurwin Techsat 1B 25 May 15:00:27 15:05:45 84° 257° (WSW) 15:11:05 435.225
AIST 2 25 May 15:17:29 15:21:13 33° 300° (WNW) 15:24:58 435.215
ITAMSAT 1 25 May 15:34:13 15:39:22 79° 76° (ENE) 15:44:32 435.822/435.867
SWISSCUBE 25 May 15:47:26 15:52:13 73° 284° (WNW) 15:56:59 437.505
ITUPSAT 1 25 May 15:52:12 15:57:00 74° 283° (WNW) 16:01:47 437.325
YUBILEINY 25 May 15:55:59 16:02:07 22° 84° (E) 16:08:13 435.215
Cosmos 2491 25 May 16:01:20 16:09:43 49° 80° (E) 16:18:00 435.465 / 435.565
AO-85 25 May 16:11:29 16:15:00 22° 55° (NE) 16:18:17 145.980
MOZHAYETS 4 25 May 16:15:16 16:17:33 13° 95° (E) 16:19:49
SRMSAT 25 May 16:15:23 16:17:51 13° 200° (SSW) 16:20:20 437.500
KKS-1 25 May 16:17:08 16:20:19 19° 97° (E) 16:23:30 437.445
BEESAT 25 May 16:17:49 16:22:10 36° 287° (WNW) 16:26:32 436.000
HORYU 2 25 May 16:35:44 16:38:22 16° 69° (ENE) 16:40:58 437.375
AO-7 25 May 16:38:25 16:46:41 81° 254° (WSW) 16:55:02 29.400- 29.500
RS-15 25 May 16:40:50 16:49:18 26° 103° (ESE) 16:58:02 29.354- 29.394
